Time,TemperatureF,DewpointF,PressureIn,WindDirection,WindDirectionDegrees,WindSpeedMPH,WindSpeedGustMPH,Humidity,HourlyPrecipIn,Conditions,Clouds,dailyrainin,SoftwareType,DateUTC
2013-05-04 00:00:00,48.0,42.5,30.10,South,180,0.0,0.0,81,0.00,,CLR,0.00,VWS V14.01,2013-05-04 05:00:00,
2013-05-04 00:10:00,47.5,42.0,30.10,South,180,0.0,0.0,81,0.00,,CLR,0.00,VWS V14.01,2013-05-04 05:10:00,
2013-05-04 00:20:00,46.9,41.1,30.10,South,180,0.0,0.0,80,0.00,,CLR,0.00,VWS V14.01,2013-05-04 05:20:00,
2013-05-04 00:30:00,46.2,40.4,30.09,South,180,0.0,0.0,80,0.00,,CLR,0.00,VWS V14.01,2013-05-04 05:30:00,
2013-05-04 00:40:00,45.9,40.7,30.09,South,180,0.0,0.0,82,0.00,,CLR,0.00,VWS V14.01,2013-05-04 05:40:00,
2013-05-04 00:50:00,45.7,41.2,30.09,South,180,0.0,0.0,84,0.00,,CLR,0.00,VWS V14.01,2013-05-04 05:50:00,
2013-05-04 01:00:00,45.6,41.4,30.10,South,180,0.0,0.0,85,0.00,,CLR,0.00,VWS V14.01,2013-05-04 06:00:00,
2013-05-04 01:10:00,45.6,41.4,30.10,South,180,0.0,0.0,85,0.00,,CLR,0.00,VWS V14.01,2013-05-04 06:10:00,
2013-05-04 01:20:00,45.5,41.3,30.09,South,180,0.0,0.0,85,0.00,,CLR,0.00,VWS V14.01,2013-05-04 06:20:00,
2013-05-04 01:30:00,45.3,41.4,30.09,South,180,0.0,0.0,86,0.00,,CLR,0.00,VWS V14.01,2013-05-04 06:30:00,
2013-05-04 01:40:00,45.3,42.0,30.09,South,180,0.0,0.0,88,0.00,,CLR,0.00,VWS V14.01,2013-05-04 06:40:00,
2013-05-04 01:50:00,45.3,42.0,30.08,South,180,0.0,0.0,88,0.00,,CLR,0.00,VWS V14.01,2013-05-04 06:50:00,
2013-05-04 02:00:00,44.8,41.5,30.07,South,180,0.0,0.0,88,0.00,,CLR,0.00,VWS V14.01,2013-05-04 07:00:00,
2013-05-04 02:10:00,44.5,41.2,30.07,South,180,0.0,0.0,88,0.00,,CLR,0.00,VWS V14.01,2013-05-04 07:10:00,
2013-05-04 02:20:00,44.2,40.9,30.07,South,180,0.0,0.0,88,0.00,,CLR,0.00,VWS V14.01,2013-05-04 07:20:00,
2013-05-04 02:30:00,43.9,40.6,30.06,South,180,0.0,0.0,88,0.00,,CLR,0.00,VWS V14.01,2013-05-04 07:30:00,
2013-05-04 02:40:00,43.7,40.7,30.06,South,180,0.0,0.0,89,0.00,,CLR,0.00,VWS V14.01,2013-05-04 07:40:00,
2013-05-04 02:50:00,43.4,40.4,30.06,South,180,0.0,0.0,89,0.00,,CLR,0.00,VWS V14.01,2013-05-04 07:50:00,
2013-05-04 03:00:00,43.3,40.3,30.05,South,180,0.0,0.0,89,0.00,,CLR,0.00,VWS V14.01,2013-05-04 08:00:00,
2013-05-04 03:10:00,43.1,40.4,30.05,South,180,0.0,0.0,90,0.00,,CLR,0.00,VWS V14.01,2013-05-04 08:10:00,
2013-05-04 03:20:00,43.0,40.3,30.04,South,180,0.0,0.0,90,0.00,,CLR,0.00,VWS V14.01,2013-05-04 08:20:00,
2013-05-04 03:30:00,42.7,40.0,30.04,South,180,0.0,0.0,90,0.00,,CLR,0.00,VWS V14.01,2013-05-04 08:30:00,
2013-05-04 03:40:00,42.7,40.0,30.04,South,180,0.0,0.0,90,0.00,,CLR,0.00,VWS V14.01,2013-05-04 08:40:00,
2013-05-04 03:50:00,42.6,39.9,30.03,South,180,0.0,0.0,90,0.00,,CLR,0.00,VWS V14.01,2013-05-04 08:50:00,
2013-05-04 04:00:00,42.4,39.7,30.03,South,180,0.0,0.0,90,0.00,,CLR,0.00,VWS V14.01,2013-05-04 09:00:00,
2013-05-04 04:10:00,42.2,39.8,30.03,South,180,0.0,0.0,91,0.00,,CLR,0.00,VWS V14.01,2013-05-04 09:10:00,
2013-05-04 04:20:00,42.0,39.3,30.03,South,180,0.0,0.0,90,0.00,,CLR,0.00,VWS V14.01,2013-05-04 09:20:00,
2013-05-04 04:30:00,41.9,39.2,30.02,South,180,0.0,0.0,90,0.00,,CLR,0.00,VWS V14.01,2013-05-04 09:30:00,
2013-05-04 04:40:00,41.8,39.4,30.02,South,180,0.0,0.0,91,0.00,,CLR,0.00,VWS V14.01,2013-05-04 09:40:00,
2013-05-04 04:50:00,41.7,39.0,30.02,South,180,0.0,0.0,90,0.00,,CLR,0.00,VWS V14.01,2013-05-04 09:50:00,
2013-05-04 05:00:00,41.5,38.8,30.03,South,180,0.0,0.0,90,0.00,,CLR,0.00,VWS V14.01,2013-05-04 10:00:00,
2013-05-04 05:10:00,41.3,38.6,30.03,South,180,0.0,0.0,90,0.00,,CLR,0.00,VWS V14.01,2013-05-04 10:10:00,
2013-05-04 05:20:00,41.1,38.4,30.02,South,180,0.0,0.0,90,0.00,,CLR,0.00,VWS V14.01,2013-05-04 10:20:00,
2013-05-04 05:30:00,40.9,38.2,30.02,South,180,0.0,0.0,90,0.00,,CLR,0.00,VWS V14.01,2013-05-04 10:30:00,
2013-05-04 05:40:00,40.8,38.1,30.02,South,180,0.0,0.0,90,0.00,,CLR,0.00,VWS V14.01,2013-05-04 10:40:00,
2013-05-04 05:50:00,40.8,38.1,30.03,South,180,0.0,0.0,90,0.00,,CLR,0.00,VWS V14.01,2013-05-04 10:50:00,
2013-05-04 06:00:00,40.7,38.0,30.03,South,180,0.0,0.0,90,0.00,,CLR,0.00,VWS V14.01,2013-05-04 11:00:00,
2013-05-04 06:10:00,40.6,37.9,30.03,South,180,0.0,0.0,90,0.00,,CLR,0.00,VWS V14.01,2013-05-04 11:10:00,
2013-05-04 06:20:00,40.4,37.7,30.03,South,180,0.0,0.0,90,0.00,,CLR,0.00,VWS V14.01,2013-05-04 11:20:00,
2013-05-04 06:30:00,40.3,37.6,30.03,South,180,0.0,0.0,90,0.00,,CLR,0.00,VWS V14.01,2013-05-04 11:30:00,
2013-05-04 06:40:00,40.4,38.0,30.03,South,180,0.0,0.0,91,0.00,,CLR,0.00,VWS V14.01,2013-05-04 11:40:00,
2013-05-04 06:50:00,40.6,37.9,30.03,South,180,0.0,0.0,90,0.00,,CLR,0.00,VWS V14.01,2013-05-04 11:50:00,
2013-05-04 07:00:00,40.6,37.9,30.04,South,180,0.0,0.0,90,0.00,,CLR,0.00,VWS V14.01,2013-05-04 12:00:00,
2013-05-04 07:10:00,40.5,37.5,30.04,South,180,0.0,0.0,89,0.00,,CLR,0.00,VWS V14.01,2013-05-04 12:10:00,
2013-05-04 07:20:00,40.4,37.4,30.04,South,180,0.0,0.0,89,0.00,,CLR,0.00,VWS V14.01,2013-05-04 12:20:00,
2013-05-04 07:30:00,40.5,37.5,30.04,South,180,0.0,0.0,89,0.00,,CLR,0.00,VWS V14.01,2013-05-04 12:30:00,
2013-05-04 07:40:00,40.7,37.7,30.04,South,180,0.0,0.0,89,0.00,,CLR,0.00,VWS V14.01,2013-05-04 12:40:00,
2013-05-04 07:50:00,41.0,38.0,30.04,South,180,0.0,0.0,89,0.00,,CLR,0.00,VWS V14.01,2013-05-04 12:50:00,
2013-05-04 08:00:00,41.5,38.5,30.05,South,180,0.0,0.0,89,0.00,,CLR,0.00,VWS V14.01,2013-05-04 13:00:00,
2013-05-04 08:10:00,42.1,39.1,30.05,South,180,0.0,0.0,89,0.00,,CLR,0.00,VWS V14.01,2013-05-04 13:10:00,
2013-05-04 08:20:00,42.9,39.6,30.06,South,180,0.0,0.0,88,0.00,,CLR,0.00,VWS V14.01,2013-05-04 13:20:00,
2013-05-04 08:30:00,44.1,40.8,30.06,South,180,0.0,0.0,88,0.00,,CLR,0.00,VWS V14.01,2013-05-04 13:30:00,
2013-05-04 08:40:00,46.1,41.5,30.06,South,180,0.0,1.0,84,0.00,,CLR,0.00,VWS V14.01,2013-05-04 13:40:00,
2013-05-04 08:50:00,49.1,41.5,30.06,South,180,0.0,2.0,75,0.00,,CLR,0.00,VWS V14.01,2013-05-04 13:50:00,
2013-05-04 09:00:00,52.4,40.2,30.06,South,180,0.0,1.0,63,0.00,,CLR,0.00,VWS V14.01,2013-05-04 14:00:00,
2013-05-04 09:10:00,55.1,40.2,30.06,South,180,0.0,2.0,57,0.00,,CLR,0.00,VWS V14.01,2013-05-04 14:10:00,
2013-05-04 09:20:00,56.8,37.9,30.07,SE,135,1.0,6.0,49,0.00,,CLR,0.00,VWS V14.01,2013-05-04 14:20:00,
2013-05-04 09:30:00,58.1,39.1,30.06,SE,135,0.0,2.0,49,0.00,,CLR,0.00,VWS V14.01,2013-05-04 14:30:00,
2013-05-04 09:40:00,59.6,37.7,30.06,SSE,158,0.0,3.0,44,0.00,,CLR,0.00,VWS V14.01,2013-05-04 14:40:00,
2013-05-04 09:50:00,61.0,37.8,30.06,East,90,1.0,6.0,42,0.00,,CLR,0.00,VWS V14.01,2013-05-04 14:50:00,
2013-05-04 10:00:00,62.3,38.9,30.06,SE,135,0.0,6.0,42,0.00,,CLR,0.00,VWS V14.01,2013-05-04 15:00:00,
2013-05-04 10:10:00,63.8,37.0,30.06,NNW,338,0.0,6.0,37,0.00,,CLR,0.00,VWS V14.01,2013-05-04 15:10:00,
2013-05-04 10:20:00,64.7,38.5,30.06,NNE,22,1.0,10.0,38,0.00,,CLR,0.00,VWS V14.01,2013-05-04 15:20:00,
2013-05-04 10:30:00,65.6,38.0,30.06,SSW,202,1.0,5.0,36,0.00,,CLR,0.00,VWS V14.01,2013-05-04 15:30:00,
2013-05-04 10:40:00,66.5,38.8,30.06,South,180,1.0,3.0,36,0.00,,CLR,0.00,VWS V14.01,2013-05-04 15:40:00,
2013-05-04 10:50:00,67.2,39.4,30.06,South,180,1.0,4.0,36,0.00,,CLR,0.00,VWS V14.01,2013-05-04 15:50:00,
2013-05-04 11:00:00,68.0,33.7,30.05,South,180,1.0,5.0,28,0.00,,CLR,0.00,VWS V14.01,2013-05-04 16:00:00,
2013-05-04 11:10:00,68.5,35.9,30.05,South,180,1.0,6.0,30,0.00,,CLR,0.00,VWS V14.01,2013-05-04 16:10:00,
2013-05-04 11:20:00,69.0,35.5,30.05,NW,315,1.0,4.0,29,0.00,,CLR,0.00,VWS V14.01,2013-05-04 16:20:00,
2013-05-04 11:30:00,69.6,35.1,30.04,SSW,202,1.0,4.0,28,0.00,,CLR,0.00,VWS V14.01,2013-05-04 16:30:00,
2013-05-04 11:40:00,70.4,37.5,30.04,SSW,202,1.0,5.0,30,0.00,,CLR,0.00,VWS V14.01,2013-05-04 16:40:00,
2013-05-04 11:50:00,71.4,34.8,30.04,SSW,202,1.0,4.0,26,0.00,,CLR,0.00,VWS V14.01,2013-05-04 16:50:00,
2013-05-04 12:00:00,72.4,35.6,30.03,NNW,338,1.0,5.0,26,0.00,,CLR,0.00,VWS V14.01,2013-05-04 17:00:00,
2013-05-04 12:10:00,72.9,36.0,30.03,South,180,1.0,5.0,26,0.00,,CLR,0.00,VWS V14.01,2013-05-04 17:10:00,
2013-05-04 12:20:00,73.4,34.5,30.03,WNW,292,1.0,4.0,24,0.00,,CLR,0.00,VWS V14.01,2013-05-04 17:20:00,
2013-05-04 12:30:00,74.1,36.1,30.02,SW,225,0.0,4.0,25,0.00,,CLR,0.00,VWS V14.01,2013-05-04 17:30:00,
2013-05-04 12:40:00,74.6,37.5,30.02,East,90,1.0,8.0,26,0.00,,CLR,0.00,VWS V14.01,2013-05-04 17:40:00,
2013-05-04 12:50:00,74.8,34.6,30.01,WSW,248,1.0,5.0,23,0.00,,CLR,0.00,VWS V14.01,2013-05-04 17:50:00,
2013-05-04 13:00:00,75.3,35.0,30.00,NNW,338,1.0,3.0,23,0.00,,CLR,0.00,VWS V14.01,2013-05-04 18:00:00,
2013-05-04 13:10:00,75.8,35.4,30.00,NW,315,1.0,5.0,23,0.00,,CLR,0.00,VWS V14.01,2013-05-04 18:10:00,
2013-05-04 13:20:00,76.3,34.7,30.00,South,180,1.0,4.0,22,0.00,,CLR,0.00,VWS V14.01,2013-05-04 18:20:00,
2013-05-04 13:30:00,76.4,39.0,29.99,NNW,338,1.0,5.0,26,0.00,,CLR,0.00,VWS V14.01,2013-05-04 18:30:00,
2013-05-04 13:40:00,77.3,36.7,29.99,NNW,338,0.0,2.0,23,0.00,,CLR,0.00,VWS V14.01,2013-05-04 18:40:00,
2013-05-04 13:50:00,77.9,34.9,29.98,NW,315,1.0,7.0,21,0.00,,CLR,0.00,VWS V14.01,2013-05-04 18:50:00,
2013-05-04 14:00:00,78.4,37.6,29.97,NW,315,0.0,3.0,23,0.00,,CLR,0.00,VWS V14.01,2013-05-04 19:00:00,
2013-05-04 14:10:00,78.9,36.9,29.97,NW,315,1.0,5.0,22,0.00,,CLR,0.00,VWS V14.01,2013-05-04 19:10:00,
2013-05-04 14:20:00,79.2,32.1,29.97,South,180,1.0,4.0,18,0.00,,CLR,0.00,VWS V14.01,2013-05-04 19:20:00,
2013-05-04 14:30:00,78.7,38.9,29.96,South,180,1.0,4.0,24,0.00,,CLR,0.00,VWS V14.01,2013-05-04 19:30:00,
2013-05-04 14:40:00,79.2,37.1,29.96,South,180,0.0,2.0,22,0.00,,CLR,0.00,VWS V14.01,2013-05-04 19:40:00,
2013-05-04 14:50:00,79.7,39.8,29.95,South,180,1.0,6.0,24,0.00,,CLR,0.00,VWS V14.01,2013-05-04 19:50:00,
2013-05-04 15:00:00,80.2,36.8,29.95,SSE,158,0.0,2.0,21,0.00,,CLR,0.00,VWS V14.01,2013-05-04 20:00:00,
2013-05-04 15:10:00,80.6,34.6,29.95,East,90,0.0,4.0,19,0.00,,CLR,0.00,VWS V14.01,2013-05-04 20:10:00,
2013-05-04 15:20:00,80.7,37.2,29.95,SSE,158,0.0,4.0,21,0.00,,CLR,0.00,VWS V14.01,2013-05-04 20:20:00,
2013-05-04 15:30:00,80.6,30.3,29.94,SSE,158,1.0,6.0,16,0.00,,CLR,0.00,VWS V14.01,2013-05-04 20:30:00,
2013-05-04 15:40:00,80.3,36.8,29.94,ESE,112,0.0,3.0,21,0.00,,CLR,0.00,VWS V14.01,2013-05-04 20:40:00,
2013-05-04 15:50:00,80.3,33.0,29.93,SE,135,0.0,4.0,18,0.00,,CLR,0.00,VWS V14.01,2013-05-04 20:50:00,
2013-05-04 16:00:00,80.7,39.5,29.92,South,180,0.0,4.0,23,0.00,,CLR,0.00,VWS V14.01,2013-05-04 21:00:00,
2013-05-04 16:10:00,81.2,30.8,29.92,South,180,0.0,2.0,16,0.00,,CLR,0.00,VWS V14.01,2013-05-04 21:10:00,
2013-05-04 16:20:00,81.6,35.4,29.92,SSW,202,0.0,6.0,19,0.00,,CLR,0.00,VWS V14.01,2013-05-04 21:20:00,
2013-05-04 16:30:00,81.0,34.9,29.91,WNW,292,0.0,3.0,19,0.00,,CLR,0.00,VWS V14.01,2013-05-04 21:30:00,
2013-05-04 16:40:00,80.2,32.9,29.91,South,180,1.0,3.0,18,0.00,,CLR,0.00,VWS V14.01,2013-05-04 21:40:00,
2013-05-04 16:50:00,79.6,35.0,29.90,SSW,202,1.0,4.0,20,0.00,,CLR,0.00,VWS V14.01,2013-05-04 21:50:00,
2013-05-04 17:00:00,79.3,33.5,29.90,South,180,0.0,2.0,19,0.00,,CLR,0.00,VWS V14.01,2013-05-04 22:00:00,
2013-05-04 17:10:00,79.1,30.6,29.90,SSW,202,0.0,2.0,17,0.00,,CLR,0.00,VWS V14.01,2013-05-04 22:10:00,
2013-05-04 17:20:00,79.3,33.5,29.89,SSW,202,0.0,3.0,19,0.00,,CLR,0.00,VWS V14.01,2013-05-04 22:20:00,
2013-05-04 17:30:00,79.1,32.0,29.89,SSE,158,0.0,4.0,18,0.00,,CLR,0.00,VWS V14.01,2013-05-04 22:30:00,
2013-05-04 17:40:00,78.6,36.6,29.89,North,0,0.0,3.0,22,0.00,,CLR,0.00,VWS V14.01,2013-05-04 22:40:00,
2013-05-04 17:50:00,78.5,31.5,29.89,East,90,0.0,3.0,18,0.00,,CLR,0.00,VWS V14.01,2013-05-04 22:50:00,
2013-05-04 18:00:00,78.4,32.8,29.89,NW,315,0.0,4.0,19,0.00,,CLR,0.00,VWS V14.01,2013-05-04 23:00:00,
2013-05-04 18:10:00,78.2,36.3,29.89,North,0,0.0,5.0,22,0.00,,CLR,0.00,VWS V14.01,2013-05-04 23:10:00,
2013-05-04 18:20:00,78.0,36.1,29.89,North,0,0.0,3.0,22,0.00,,CLR,0.00,VWS V14.01,2013-05-04 23:20:00,
2013-05-04 18:30:00,77.7,35.9,29.88,North,0,0.0,3.0,22,0.00,,CLR,0.00,VWS V14.01,2013-05-04 23:30:00,
2013-05-04 18:40:00,77.3,35.5,29.88,North,0,0.0,3.0,22,0.00,,CLR,0.00,VWS V14.01,2013-05-04 23:40:00,
2013-05-04 18:50:00,76.8,36.2,29.88,North,0,0.0,1.0,23,0.00,,CLR,0.00,VWS V14.01,2013-05-04 23:50:00,
2013-05-04 19:00:00,76.2,36.8,29.88,North,0,0.0,2.0,24,0.00,,CLR,0.00,VWS V14.01,2013-05-05 00:00:00,
2013-05-04 19:10:00,75.5,35.2,29.88,North,0,0.0,1.0,23,0.00,,CLR,0.00,VWS V14.01,2013-05-05 00:10:00,
2013-05-04 19:20:00,74.8,35.6,29.88,North,0,0.0,1.0,24,0.00,,CLR,0.00,VWS V14.01,2013-05-05 00:20:00,
2013-05-04 19:30:00,74.1,35.0,29.88,North,0,0.0,1.0,24,0.00,,CLR,0.00,VWS V14.01,2013-05-05 00:30:00,
2013-05-04 19:40:00,73.4,34.5,29.88,North,0,0.0,0.0,24,0.00,,CLR,0.00,VWS V14.01,2013-05-05 00:40:00,
2013-05-04 19:50:00,72.7,34.9,29.89,North,0,0.0,0.0,25,0.00,,CLR,0.00,VWS V14.01,2013-05-05 00:50:00,
2013-05-04 20:00:00,72.0,36.2,29.89,North,0,0.0,0.0,27,0.00,,CLR,0.00,VWS V14.01,2013-05-05 01:00:00,
2013-05-04 20:10:00,71.1,38.1,29.89,North,0,0.0,0.0,30,0.00,,CLR,0.00,VWS V14.01,2013-05-05 01:10:00,
2013-05-04 20:20:00,70.1,40.5,29.89,North,0,0.0,0.0,34,0.00,,CLR,0.00,VWS V14.01,2013-05-05 01:20:00,
2013-05-04 20:30:00,69.2,41.1,29.89,North,0,0.0,0.0,36,0.00,,CLR,0.00,VWS V14.01,2013-05-05 01:30:00,
2013-05-04 20:40:00,68.3,42.4,29.89,North,0,0.0,0.0,39,0.00,,CLR,0.00,VWS V14.01,2013-05-05 01:40:00,
2013-05-04 20:50:00,67.2,42.1,29.90,North,0,0.0,0.0,40,0.00,,CLR,0.00,VWS V14.01,2013-05-05 01:50:00,
2013-05-04 21:00:00,66.4,41.4,29.90,North,0,0.0,0.0,40,0.00,,CLR,0.00,VWS V14.01,2013-05-05 02:00:00,
2013-05-04 21:10:00,65.8,43.3,29.90,North,0,0.0,0.0,44,0.00,,CLR,0.00,VWS V14.01,2013-05-05 02:10:00,
2013-05-04 21:20:00,65.2,42.8,29.90,North,0,0.0,0.0,44,0.00,,CLR,0.00,VWS V14.01,2013-05-05 02:20:00,
2013-05-04 21:30:00,64.5,42.1,29.91,North,0,0.0,0.0,44,0.00,,CLR,0.00,VWS V14.01,2013-05-05 02:30:00,
2013-05-04 21:40:00,63.6,41.3,29.91,North,0,0.0,0.0,44,0.00,,CLR,0.00,VWS V14.01,2013-05-05 02:40:00,
2013-05-04 21:50:00,62.6,41.5,29.92,North,0,0.0,0.0,46,0.00,,CLR,0.00,VWS V14.01,2013-05-05 02:50:00,
2013-05-04 22:00:00,61.8,42.5,29.93,North,0,0.0,0.0,49,0.00,,CLR,0.00,VWS V14.01,2013-05-05 03:00:00,
2013-05-04 22:10:00,60.9,45.1,29.93,North,0,0.0,0.0,56,0.00,,CLR,0.00,VWS V14.01,2013-05-05 03:10:00,
2013-05-04 22:20:00,60.0,46.5,29.94,North,0,0.0,0.0,61,0.00,,CLR,0.00,VWS V14.01,2013-05-05 03:20:00,
2013-05-04 22:30:00,59.3,46.3,29.95,North,0,0.0,0.0,62,0.00,,CLR,0.00,VWS V14.01,2013-05-05 03:30:00,
2013-05-04 22:40:00,58.6,48.1,29.95,North,0,0.0,0.0,68,0.00,,CLR,0.00,VWS V14.01,2013-05-05 03:40:00,
2013-05-04 22:50:00,58.0,47.1,29.95,North,0,0.0,0.0,67,0.00,,CLR,0.00,VWS V14.01,2013-05-05 03:50:00,
2013-05-04 23:00:00,57.6,45.9,29.95,North,0,0.0,0.0,65,0.00,,CLR,0.00,VWS V14.01,2013-05-05 04:00:00,
2013-05-04 23:10:00,57.2,44.7,29.95,North,0,0.0,0.0,63,0.00,,CLR,0.00,VWS V14.01,2013-05-05 04:10:00,
2013-05-04 23:20:00,56.7,43.4,29.96,North,0,0.0,3.0,61,0.00,,CLR,0.00,VWS V14.01,2013-05-05 04:20:00,
2013-05-04 23:30:00,56.5,44.5,29.97,North,0,0.0,2.0,64,0.00,,CLR,0.00,VWS V14.01,2013-05-05 04:30:00,
2013-05-04 23:40:00,56.5,44.1,29.97,North,0,0.0,0.0,63,0.00,,CLR,0.00,VWS V14.01,2013-05-05 04:40:00,
2013-05-04 23:50:00,56.7,43.8,29.98,North,0,0.0,0.0,62,0.00,,CLR,0.00,VWS V14.01,2013-05-05 04:50:00,